DW3383 Weather Reports


time (UTC)temp
C
wind
direction
speed
KPH
gust
KPH
rain 1hr
cm
rain 24hr
cm
rain mn
cm
humidity
%
barometer
mb
20260510190805 10 37 4.8 12.9 0.00 0.00 0.00 64 1002.1
20260510170804 6 8 4.8 9.7 0.00 0.00 0.00 74 1002.3
20260510170304 6 278 4.8 12.9 0.00 0.00 0.00 75 1002.3
20260510160804 5 275 8.0 12.9 0.00 0.00 0.00 77 1002.5
20260510160305 5 347 4.8 16.1 0.00 0.00 0.00 77 1002.5
20260510150805 5 113 4.8 11.3 0.00 0.00 0.00 78 1002.0
20260510140805 4 26 4.8 12.9 0.00 0.00 0.00 79 1002.0
20260510130804 3 277 4.8 8.0 0.00 0.00 0.00 81 1002.0
20260510130304 3 284 4.8 9.7 0.00 0.00 0.00 81 1002.0
20260510120804 2 287 3.2 8.0 0.00 0.00 0.00 84 1002.4
20260510120304 2 283 3.2 8.0 0.00 0.00 0.00 85 1002.3
20260510110805 2 250 3.2 4.8 0.00 0.00 0.00 84 1002.4
20260510110305 2 247 3.2 9.7 0.00 0.00 0.00 84 1002.4
20260510100804 3 269 6.4 12.9 0.00 0.00 0.00 80 1002.4
20260510100304 3 281 4.8 12.9 0.00 0.00 0.00 80 1002.3
20260510090804 2 266 3.2 8.0 0.00 0.00 0.00 82 1002.1
20260510090305 2 173 4.8 11.3 0.00 0.00 0.00 81 1002.0
20260510080804 4 295 4.8 4.8 0.00 0.00 0.00 76 1002.0
20260510080305 4 274 4.8 11.3 0.00 0.00 0.00 75 1002.0
20260510070304 5 299 4.8 12.9 0.00 0.00 0.00 74 1001.9
20260510060805 5 278 4.8 11.3 0.00 0.00 0.00 72 1001.9
20260510060305 5 129 4.8 11.3 0.00 0.00 0.00 72 1001.8
20260510050804 6 129 1.6 8.0 0.00 0.00 0.00 66 1001.3
20260510040804 8 26 3.2 4.8 0.00 0.00 0.00 60 1001.3
20260510040305 9 58 4.8 12.9 0.00 0.00 0.00 60 1001.4
20260510030304 10 325 9.7 14.5 0.00 0.00 0.00 58 1001.4
20260510020304 10 292 8.0 14.5 0.00 0.00 0.00 56 1001.6
20260510010804 10 297 6.4 11.3 0.00 0.00 0.00 54 1001.7
20260510010305 11 287 4.8 14.5 0.00 0.00 0.00 55 1001.7
20260510000804 11 359 1.6 9.7 0.00 0.00 0.00 55 1001.4
20260509230804 11 320 3.2 9.7 0.00 0.00 0.00 53 1001.3
20260509230305 11 315 3.2 12.9 0.00 0.00 0.00 53 1001.3
20260509220804 11 145 1.6 4.8 0.00 0.00 0.00 58 1001.5
20260509220305 11 12 3.2 14.5 0.00 0.00 0.00 58 1001.5
20260509210304 12 34 3.2 14.5 0.00 0.00 0.00 57 1001.3
20260509200804 11 356 4.8 14.5 0.00 0.00 0.00 61 1001.3